Location: Clinton NY
(43.0598°N, 75.3602°W)
Time: 09:43:00
(UTC-05:00)

Amateur Radio Satellites - All Passes

Search period start: 16 December 2017 09:13
Search period end: 17 December 2017 09:13
Location: Clinton NY, 43.0598°N, 75.3602°W

Satellite Date Start Highest point End Downlink Frequencies (MHz)
Time Altitude Azimuth
DELFI C3 16 Dec 09:18:35 09:22:23 44° 99° (E) 09:26:08 145.870
EO-88 16 Dec 09:30:36 09:33:47 27° 96° (E) 09:36:57 145.990 - 145.960
AIST 2D 16 Dec 09:31:36 09:34:00 18° 67° (ENE) 09:36:25 435.315
POLYITAN 1 16 Dec 09:44:47 09:45:33 10° 60° (ENE) 09:46:19 437.675
NO-84 16 Dec 09:57:59 09:59:29 12° 7° (N) 10:01:04 435.350 FM
nSIGHT-1 16 Dec 10:00:39 10:03:08 21° 135° (SE) 10:05:37 .
HO-68 16 Dec 10:01:05 10:01:45 10° 315° (NW) 10:02:25 435.675
QB50P2 16 Dec 10:07:59 10:11:07 21° 66° (ENE) 10:14:16 145.880/145.840
DUCHIFAT 1 16 Dec 10:10:53 10:13:21 16° 64° (ENE) 10:15:49 145.980
NANOSAT C BR1 16 Dec 10:36:54 10:40:38 32° 70° (ENE) 10:44:23 145.865
Max Valier Satellite 16 Dec 10:40:34 10:43:43 26° 290° (WNW) 10:46:52 145.860
PRISM 16 Dec 10:44:33 10:47:45 21° 266° (W) 10:50:58 437.425
ISS 16 Dec 10:48:28 10:51:37 45° 141° (SE) 10:54:47 437.550
EO-79 16 Dec 10:53:04 10:57:10 56° 73° (ENE) 11:01:16 145.935-145.965
DELFI C3 16 Dec 10:54:26 10:56:45 15° 295° (WNW) 10:59:02 145.870
AIST 2D 16 Dec 11:03:52 11:06:57 29° 264° (W) 11:10:04 435.315
EO-88 16 Dec 11:04:31 11:07:16 20° 292° (WNW) 11:09:59 145.990 - 145.960
ESTCUBE 1 16 Dec 11:13:03 11:17:26 45° 99° (E) 11:21:46 437.505/2401.250
POLYITAN 1 16 Dec 11:16:30 11:20:41 79° 259° (W) 11:24:53 437.675
LO-87 16 Dec 11:28:14 11:31:47 80° 283° (WNW) 11:35:19 145.935 - 145.965
Oscar 19 16 Dec 11:28:28 11:32:06 20° 61° (ENE) 11:35:45 437.125/150
SPROUT 16 Dec 11:29:25 11:32:02 16° 92° (E) 11:34:37 437.525
YUBILEINY 16 Dec 11:30:50 11:32:43 11° 51° (NE) 11:34:36 435.215
NO-84 16 Dec 11:34:34 11:37:42 27° 28° (NNE) 11:41:03 435.350 FM
nSIGHT-1 16 Dec 11:35:59 11:39:08 51° 332° (NNW) 11:42:17 .
AO-91 16 Dec 11:37:33 11:40:52 19° 67° (ENE) 11:44:00 145.960
QB50P2 16 Dec 11:42:48 11:46:40 35° 262° (W) 11:50:33 145.880/145.840
DUCHIFAT 1 16 Dec 11:44:34 11:48:36 49° 260° (W) 11:52:39 145.980
RS-15 16 Dec 11:55:49 12:00:41 13° 93° (E) 12:05:31 29.354- 29.394
NANOSAT C BR1 16 Dec 12:13:09 12:16:23 22° 266° (W) 12:19:38 145.865
BUGSAT 1 16 Dec 12:17:28 12:21:30 89° 86° (E) 12:25:32 437.445
Gurwin Techsat 1B 16 Dec 12:23:47 12:28:48 45° 69° (ENE) 12:33:52 435.225
ISS 16 Dec 12:25:12 12:28:11 31° 339° (NNW) 12:31:11 437.550
EO-79 16 Dec 12:31:21 12:33:15 13° 270° (W) 12:35:10 145.935-145.965
VELOX 1 16 Dec 12:38:10 12:42:28 51° 100° (E) 12:46:45 145.980
AO-7 16 Dec 12:45:13 12:51:28 25° 51° (NE) 12:57:45 .
ESTCUBE 1 16 Dec 12:50:37 12:53:54 20° 296° (WNW) 12:57:09 437.505/2401.250
SPROUT 16 Dec 13:04:05 13:08:09 46° 288° (WNW) 13:12:13 437.525
Oscar 19 16 Dec 13:05:55 13:10:58 57° 259° (W) 13:16:04 437.125/150
M-CUBED/EXP-1 PRIME 16 Dec 13:07:27 13:09:55 15° 55° (NE) 13:12:26 437.505
UKube-1 16 Dec 13:09:16 13:11:36 14° 91° (E) 13:13:56 .
NO-84 16 Dec 13:11:28 13:15:10 55° 224° (SW) 13:19:07 435.350 FM
AO-91 16 Dec 13:12:25 13:17:05 46° 260° (W) 13:21:19 145.960
nSIGHT-1 16 Dec 13:13:26 13:15:52 19° 351° (N) 13:18:16 .
YUBILEINY 16 Dec 13:23:23 13:32:01 54° 75° (ENE) 13:40:31 435.215
DX 1 16 Dec 13:27:51 13:31:53 36° 98° (E) 13:35:54 434.975-435.025
50 SAT 16 Dec 13:33:54 13:36:55 42° 99° (E) 13:39:55 437.505
RS-15 16 Dec 13:58:30 14:10:30 62° 114° (ESE) 14:22:24 29.354- 29.394
ISS 16 Dec 14:03:01 14:05:23 18° 359° (N) 14:07:46 437.550
Gurwin Techsat 1B 16 Dec 14:04:39 14:08:56 25° 266° (W) 14:13:14 435.225
VELOX 1 16 Dec 14:15:42 14:18:30 17° 297° (WNW) 14:21:17 145.980
ITAMSAT 1 16 Dec 14:22:25 14:27:22 45° 69° (ENE) 14:32:19 435.822/435.867
ITUPSAT 1 16 Dec 14:24:23 14:26:58 14° 91° (E) 14:29:35 437.325
AO-7 16 Dec 14:34:57 14:43:16 86° 251° (WSW) 14:51:40 .
M-CUBED/EXP-1 PRIME 16 Dec 14:39:16 14:43:38 74° 253° (WSW) 14:48:15 437.505
SO-50 16 Dec 14:41:52 14:46:10 50° 119° (ESE) 14:50:32 436.795
DOVE 4 16 Dec 14:42:24 14:45:21 15° 62° (ENE) 14:48:14 437.250
UKube-1 16 Dec 14:43:44 14:47:56 53° 288° (WNW) 14:52:07 .
nSIGHT-1 16 Dec 14:50:22 14:52:53 20° 12° (NNE) 14:55:24 .
MOZHAYETS 4 16 Dec 14:51:59 14:56:24 42° 98° (E) 15:00:46
DX 1 16 Dec 15:04:31 15:07:50 22° 295° (WNW) 15:11:08 434.975-435.025
YUBILEINY 16 Dec 15:20:45 15:28:25 35° 276° (W) 15:36:03 435.215
BEESAT 16 Dec 15:30:40 15:35:26 68° 102° (ESE) 15:40:10 436.000
ISS 16 Dec 15:39:44 15:42:38 28° 19° (NNE) 15:45:32 437.550
ITUPSAT 1 16 Dec 16:00:29 16:05:13 63° 287° (WNW) 16:09:56 437.325
XW-2D 16 Dec 16:02:53 16:04:26 12° 63° (ENE) 16:05:59 145.860 - 145.880
ITAMSAT 1 16 Dec 16:02:53 16:07:00 23° 266° (W) 16:11:09 435.822/435.867
CUTE-I 16 Dec 16:04:53 16:08:20 18° 60° (ENE) 16:11:47 437.470
RS-15 16 Dec 16:11:39 16:23:29 49° 319° (NW) 16:35:11 29.354- 29.394
DOVE 4 16 Dec 16:17:10 16:22:25 77° 258° (WSW) 16:27:32 437.250
XW-2B 16 Dec 16:17:46 16:20:16 17° 66° (ENE) 16:22:47 145.730 - 145.750
CUBESAT XI-V 16 Dec 16:20:38 16:25:23 85° 101° (ESE) 16:30:05 437.345
SO-50 16 Dec 16:23:17 16:26:53 23° 318° (NW) 16:30:32 436.795
nSIGHT-1 16 Dec 16:26:19 16:29:32 66° 31° (NNE) 16:32:44 .
KKS-1 16 Dec 16:27:20 16:30:24 18° 93° (E) 16:33:27 437.445
XW-2F 16 Dec 16:27:31 16:30:21 20° 67° (ENE) 16:33:13 145.980 - 146.000
MOZHAYETS 4 16 Dec 16:29:46 16:33:15 22° 295° (WNW) 16:36:44
AO-7 16 Dec 16:31:58 16:37:09 18° 271° (W) 16:42:22 .
XW-2C 16 Dec 16:44:12 16:47:37 34° 71° (ENE) 16:51:06 145.795 - 145.815
HO-68 16 Dec 16:51:31 16:57:29 29° 59° (ENE) 17:03:28 435.675
STARS 16 Dec 17:04:14 17:07:12 18° 93° (E) 17:10:08 437.465
O/OREOS (USA 219) 16 Dec 17:07:38 17:11:53 39° 61° (ENE) 17:16:04 437.305
BEESAT 16 Dec 17:09:56 17:12:38 15° 299° (WNW) 17:15:19 436.000
ISS 16 Dec 17:16:03 17:19:18 58° 218° (SW) 17:22:31 437.550
LilacSat-2 16 Dec 17:22:58 17:26:46 72° 258° (WSW) 17:30:38 437.200
NUDT-PHONESAT 16 Dec 17:29:10 17:32:51 82° 76° (ENE) 17:36:36 437.300
XW-2D 16 Dec 17:34:24 17:38:07 54° 260° (W) 17:41:53 145.860 - 145.880
UWE-3 16 Dec 17:36:09 17:37:49 12° 62° (ENE) 17:39:29 435.000/436.395/437.385
KAITUO 1B 16 Dec 17:36:49 17:40:33 75° 258° (WSW) 17:44:21 145.475/437.950
SEEDS 16 Dec 17:37:13 17:40:32 23° 67° (ENE) 17:43:53 437.485
CUBEBUG 2 16 Dec 17:39:16 17:42:33 23° 67° (ENE) 17:45:51 437.445
CUTE-I 16 Dec 17:42:26 17:47:47 70° 257° (WSW) 17:53:10 437.470
PCSat 16 Dec 17:44:34 17:49:40 43° 112° (ESE) 17:54:46 145.827
AAUSAT CUBESAT 2 16 Dec 17:50:36 17:52:49 14° 63° (ENE) 17:55:03 437.432
XW-2B 16 Dec 17:50:38 17:54:09 36° 263° (W) 17:57:41 145.730 - 145.750
ZACube-1 16 Dec 17:56:59 17:57:54 11° 61° (ENE) 17:58:49 437.345
CUBESAT XI-V 16 Dec 18:00:15 18:02:01 12° 301° (WNW) 18:03:48 437.345
XW-2F 16 Dec 18:00:59 18:04:17 29° 264° (W) 18:07:37 145.980 - 146.000
KKS-1 16 Dec 18:02:58 18:07:10 43° 289° (WNW) 18:11:20 437.445
nSIGHT-1 16 Dec 18:03:22 18:05:24 16° 227° (SW) 18:07:26 .
CUTE 1.7 + AOD 2 16 Dec 18:03:27 18:07:41 71° 75° (ENE) 18:11:58 437.475
XW-2C 16 Dec 18:19:21 18:21:54 17° 267° (W) 18:24:29 145.795 - 145.815
AO-73 16 Dec 18:27:11 18:30:11 20° 66° (ENE) 18:33:12 145.935
RS-15 16 Dec 18:30:10 18:39:56 26° 351° (N) 18:49:27 29.354- 29.394
HO-68 16 Dec 18:37:41 18:44:47 60° 258° (WSW) 18:51:54 435.675
STARS 16 Dec 18:39:35 18:43:44 44° 289° (WNW) 18:47:51 437.465
O/OREOS (USA 219) 16 Dec 18:47:38 18:51:01 21° 258° (WSW) 18:54:22 437.305
XW-2A 16 Dec 19:02:34 19:05:54 90° 113° (ESE) 19:09:18 145.665 - 145.685
UWE-3 16 Dec 19:09:38 19:13:44 64° 259° (W) 19:17:51 435.000/436.395/437.385
SEEDS 16 Dec 19:12:13 19:16:01 33° 263° (W) 19:19:53 437.485
STRAND 1 16 Dec 19:13:41 19:18:37 48° 99° (E) 19:23:32 437.568
CUBEBUG 2 16 Dec 19:15:20 19:19:02 30° 264° (W) 19:22:44 437.445
AAUSAT CUBESAT 2 16 Dec 19:23:42 19:27:48 56° 260° (W) 19:31:56 437.432
PCSat 16 Dec 19:28:23 19:33:10 31° 312° (NW) 19:38:00 145.827
ZACube-1 16 Dec 19:29:26 19:33:33 75° 257° (WSW) 19:37:43 437.345
BEESAT 3 16 Dec 19:32:57 19:36:54 74° 122° (ESE) 19:40:55 437.485
CUTE 1.7 + AOD 2 16 Dec 19:43:16 19:43:59 10° 272° (W) 19:44:43 437.475
Oscar 11 16 Dec 19:44:49 19:49:08 88° 261° (W) 19:53:29 .
Max Valier Satellite 16 Dec 19:48:05 19:49:28 12° 64° (ENE) 19:50:51 145.860
AO-73 16 Dec 20:02:23 20:06:10 36° 263° (W) 20:10:01 145.935
DELFI C3 16 Dec 20:04:28 20:07:55 29° 69° (ENE) 20:11:23 145.870
EO-88 16 Dec 20:09:52 20:11:55 15° 65° (ENE) 20:14:00 145.990 - 145.960
FO-29 16 Dec 20:17:54 20:24:41 61° 100° (E) 20:30:37 435.910
BEESAT 2 16 Dec 20:18:29 20:22:27 62° 120° (ESE) 20:26:28 435.950
RS-15 16 Dec 20:46:53 20:57:26 33° 26° (NNE) 21:07:28 29.354- 29.394
TIGRISAT 16 Dec 20:49:38 20:52:14 15° 92° (E) 20:54:50 435.000
UNISAT 6 16 Dec 20:53:11 20:56:15 18° 93° (E) 20:59:21 437.425
STRAND 1 16 Dec 20:53:35 20:57:29 23° 297° (WNW) 21:01:22 437.568
BEESAT 3 16 Dec 21:12:32 21:14:55 15° 321° (NW) 21:17:17 437.485
Max Valier Satellite 16 Dec 21:19:16 21:22:49 51° 260° (W) 21:26:25 145.860
SO-50 16 Dec 21:33:04 21:35:03 12° 32° (NNE) 21:37:03 436.795
AO-85 16 Dec 21:34:27 21:38:22 88° 307° (NW) 21:42:31 145.980
DELFI C3 16 Dec 21:39:28 21:42:38 22° 266° (W) 21:45:50 145.870
EO-88 16 Dec 21:41:48 21:45:13 39° 262° (W) 21:48:41 145.990 - 145.960
BEESAT 2 16 Dec 21:57:49 22:00:33 17° 319° (NW) 22:03:18 435.950
FALCONSAT 3 16 Dec 22:03:01 22:05:50 21° 169° (S) 22:08:38 435.103
FO-29 16 Dec 22:03:42 22:09:07 25° 301° (WNW) 22:14:03 435.910
LO-87 16 Dec 22:04:37 22:07:58 42° 73° (ENE) 22:11:20 145.935 - 145.965
ESTCUBE 1 16 Dec 22:13:07 22:17:25 45° 71° (ENE) 22:21:46 437.505/2401.250
PRISM 16 Dec 22:23:35 22:27:32 46° 100° (E) 22:31:26 437.425
SPROUT 16 Dec 22:24:02 22:26:21 15° 63° (ENE) 22:28:41 437.525
TIGRISAT 16 Dec 22:24:57 22:29:11 51° 287° (WNW) 22:33:29 435.000
AIST 2D 16 Dec 22:27:48 22:30:19 18° 93° (E) 22:32:48 435.315
UNISAT 6 16 Dec 22:29:00 22:33:08 42° 289° (WNW) 22:37:19 437.425
RS-15 16 Dec 23:00:04 23:12:01 81° 55° (NE) 23:23:15 29.354- 29.394
POLYITAN 1 16 Dec 23:01:21 23:03:53 15° 92° (E) 23:06:24 437.675
SO-50 16 Dec 23:11:50 23:16:27 60° 52° (NE) 23:21:08 436.795
AO-85 16 Dec 23:17:26 23:19:28 13° 325° (NW) 23:21:34 145.980
QB50P2 16 Dec 23:26:16 23:30:05 32° 97° (E) 23:33:53 145.880/145.840
DUCHIFAT 1 16 Dec 23:27:42 23:31:02 23° 94° (E) 23:34:22 145.980
VELOX 1 16 Dec 23:35:48 23:40:07 51° 72° (ENE) 23:44:26 145.980
LO-87 16 Dec 23:40:13 23:41:35 12° 269° (W) 23:42:57 145.935 - 145.965
FALCONSAT 3 16 Dec 23:41:20 23:44:22 24° 184° (S) 23:47:23 435.103
ESTCUBE 1 16 Dec 23:51:19 23:54:26 18° 268° (W) 23:57:35 437.505/2401.250
NANOSAT C BR1 16 Dec 23:55:01 23:59:08 52° 100° (E) 00:03:15 145.865
SPROUT 16 Dec 23:57:37 00:01:47 56° 260° (W) 00:05:58 437.525
PRISM 16 Dec 23:59:53 00:02:25 16° 296° (WNW) 00:04:56 437.425
BUGSAT 1 17 Dec 00:00:07 00:01:25 11° 90° (E) 00:02:44 437.445
AIST 2D 17 Dec 00:00:25 00:03:29 28° 290° (WNW) 00:06:32 435.315
50 SAT 17 Dec 00:01:29 00:03:23 15° 67° (ENE) 00:05:17 437.505
UKube-1 17 Dec 00:04:45 00:07:13 15° 62° (ENE) 00:09:42 .
EO-79 17 Dec 00:11:59 00:16:13 87° 284° (WNW) 00:20:27 145.935-145.965
DX 1 17 Dec 00:23:58 00:27:58 36° 70° (ENE) 00:32:00 434.975-435.025
POLYITAN 1 17 Dec 00:35:50 00:39:54 47° 288° (WNW) 00:43:58 437.675
YUBILEINY 17 Dec 00:38:09 00:38:50 10° 70° (ENE) 00:39:30 435.215
Gurwin Techsat 1B 17 Dec 00:40:10 00:43:22 16° 90° (E) 00:46:32 435.225
PCSat 17 Dec 00:50:30 00:51:32 10° 30° (NNE) 00:52:35 145.827
SO-50 17 Dec 00:53:23 00:56:29 18° 250° (WSW) 00:59:37 436.795
AO-91 17 Dec 01:01:53 01:04:44 24° 96° (E) 01:07:32 145.960
QB50P2 17 Dec 01:02:20 01:05:42 23° 293° (WNW) 01:09:03 145.880/145.840
DUCHIFAT 1 17 Dec 01:02:59 01:06:43 32° 291° (WNW) 01:10:26 145.980
BEESAT 17 Dec 01:04:05 01:05:25 11° 58° (ENE) 01:06:46 436.000
RS-15 17 Dec 01:13:51 01:23:03 29° 258° (WSW) 01:31:57 29.354- 29.394
VELOX 1 17 Dec 01:14:06 01:16:50 16° 268° (W) 01:19:34 145.980
Oscar 19 17 Dec 01:16:22 01:21:23 46° 99° (E) 01:26:23 437.125/150
FALCONSAT 3 17 Dec 01:20:49 01:22:47 14° 200° (SSW) 01:24:46 435.103
ITUPSAT 1 17 Dec 01:31:45 01:35:11 20° 63° (ENE) 01:38:37 437.325
NANOSAT C BR1 17 Dec 01:31:59 01:34:25 15° 297° (WNW) 01:36:50 145.865
50 SAT 17 Dec 01:32:21 01:35:05 26° 263° (W) 01:37:50 437.505
BUGSAT 1 17 Dec 01:33:08 01:37:08 60° 286° (WNW) 01:41:09 437.445
UKube-1 17 Dec 01:38:31 01:42:46 56° 259° (W) 01:47:02 .
CUBESAT XI-V 17 Dec 01:51:02 01:52:24 11° 59° (ENE) 01:53:47 437.345
MOZHAYETS 4 17 Dec 01:54:31 01:58:50 44° 71° (ENE) 02:03:11
DX 1 17 Dec 02:00:53 02:04:14 21° 266° (W) 02:07:37 434.975-435.025
Gurwin Techsat 1B 17 Dec 02:18:30 02:23:48 68° 287° (WNW) 02:29:04 435.225
YUBILEINY 17 Dec 02:25:00 02:33:35 59° 91° (E) 02:42:12 435.215
PCSat 17 Dec 02:31:13 02:36:25 44° 53° (NE) 02:41:34 145.827
ITAMSAT 1 17 Dec 02:35:48 02:38:28 14° 90° (E) 02:41:08 435.822/435.867
AO-7 17 Dec 02:36:06 02:43:14 30° 95° (E) 02:50:18 .
BEESAT 17 Dec 02:37:40 02:42:25 87° 75° (ENE) 02:47:12 436.000
AO-91 17 Dec 02:38:43 02:41:06 18° 293° (WNW) 02:43:27 145.960
Oscar 19 17 Dec 02:56:17 03:00:24 24° 296° (WNW) 03:04:31 437.125/150
ITUPSAT 1 17 Dec 03:08:04 03:12:39 48° 260° (W) 03:17:16 437.325
CUBESAT XI-V 17 Dec 03:24:21 03:29:01 90° 351° (N) 03:33:45 437.345
KKS-1 17 Dec 03:26:15 03:29:31 20° 64° (ENE) 03:32:47 437.445
MOZHAYETS 4 17 Dec 03:32:59 03:36:11 19° 268° (W) 03:39:25
BEESAT 3 17 Dec 03:48:37 03:52:31 55° 54° (NE) 03:56:19 437.485
M-CUBED/EXP-1 PRIME 17 Dec 03:51:03 03:55:33 72° 108° (ESE) 03:59:43 437.505
STARS 17 Dec 04:01:45 04:04:49 19° 64° (ENE) 04:07:54 437.465
Gurwin Techsat 1B 17 Dec 04:02:17 04:02:44 10° 305° (NW) 04:03:11 435.225
ITAMSAT 1 17 Dec 04:13:18 04:18:28 73° 287° (WNW) 04:23:37 435.822/435.867
PCSat 17 Dec 04:14:59 04:19:36 29° 251° (WSW) 04:24:11 145.827
DOVE 4 17 Dec 04:16:06 04:19:46 25° 94° (E) 04:23:16 437.250
YUBILEINY 17 Dec 04:23:10 04:30:51 33° 292° (WNW) 04:38:38 435.215
AO-85 17 Dec 04:24:19 04:27:37 18° 40° (NE) 04:31:03 145.980
AO-7 17 Dec 04:28:13 04:36:28 64° 294° (WNW) 04:44:42 .
BEESAT 2 17 Dec 04:35:05 04:39:01 49° 52° (NE) 04:42:52 435.950
STRAND 1 17 Dec 04:56:01 04:57:08 11° 56° (NE) 04:58:15 437.568
LilacSat-2 17 Dec 04:57:06 04:58:27 11° 90° (E) 04:59:46 437.200
KKS-1 17 Dec 05:01:32 05:05:46 42° 261° (W) 05:10:01 437.445
XW-2D 17 Dec 05:06:56 05:09:05 14° 91° (E) 05:11:14 145.860 - 145.880
XW-2B 17 Dec 05:22:16 05:25:13 21° 94° (E) 05:28:08 145.730 - 145.750
M-CUBED/EXP-1 PRIME 17 Dec 05:26:55 05:29:15 14° 305° (NW) 05:31:31 437.505
BEESAT 3 17 Dec 05:27:37 05:29:33 13° 250° (WSW) 05:31:27 437.485
XW-2F 17 Dec 05:31:39 05:34:51 25° 95° (E) 05:38:02 145.980 - 146.000
STARS 17 Dec 05:36:38 05:40:50 44° 261° (W) 05:45:03 437.465
XW-2C 17 Dec 05:49:16 05:52:58 44° 98° (E) 05:56:39 145.795 - 145.815
CUTE 1.7 + AOD 2 17 Dec 05:49:22 05:50:55 12° 89° (E) 05:52:28 437.475
DOVE 4 17 Dec 05:53:35 05:57:28 30° 292° (WNW) 06:01:10 437.250
ITAMSAT 1 17 Dec 05:55:57 05:57:00 11° 305° (NW) 05:58:04 435.822/435.867
CUTE-I 17 Dec 05:58:35 06:03:39 43° 98° (E) 06:08:41 437.470
AO-85 17 Dec 06:03:44 06:08:34 83° 238° (WSW) 06:13:43 145.980
NO-84 17 Dec 06:03:52 06:06:50 77° 320° (NW) 06:10:02 435.350 FM
HO-68 17 Dec 06:04:54 06:10:43 26° 93° (E) 06:16:29 435.675
BEESAT 2 17 Dec 06:13:50 06:16:20 16° 249° (WSW) 06:18:48 435.950
AO-7 17 Dec 06:22:57 06:27:39 17° 315° (NW) 06:32:20 .
FO-29 17 Dec 06:29:10 06:36:06 36° 63° (ENE) 06:42:58 435.910
LilacSat-2 17 Dec 06:29:13 06:33:01 54° 287° (WNW) 06:36:48 437.200
STRAND 1 17 Dec 06:30:19 06:35:25 76° 74° (ENE) 06:40:32 437.568
NUDT-PHONESAT 17 Dec 06:31:41 06:35:28 82° 283° (WNW) 06:39:12 437.300
XW-2D 17 Dec 06:39:47 06:43:27 42° 288° (WNW) 06:47:04 145.860 - 145.880
KAITUO 1B 17 Dec 06:40:32 06:44:18 59° 285° (WNW) 06:48:01 145.475/437.950
SEEDS 17 Dec 06:54:31 06:58:27 36° 97° (E) 07:02:22 437.485
XW-2B 17 Dec 06:56:02 06:59:23 29° 290° (WNW) 07:02:43 145.730 - 145.750
UWE-3 17 Dec 06:58:08 07:01:38 23° 94° (E) 07:05:11 435.000/436.395/437.385
CUBEBUG 2 17 Dec 07:03:57 07:08:06 46° 99° (E) 07:12:21 437.445
AAUSAT CUBESAT 2 17 Dec 07:05:16 07:08:25 20° 93° (E) 07:11:31 437.432
XW-2F 17 Dec 07:05:44 07:08:52 24° 291° (WNW) 07:11:58 145.980 - 146.000
ZACube-1 17 Dec 07:16:59 07:20:13 20° 93° (E) 07:23:29 437.345
O/OREOS (USA 219) 17 Dec 07:20:46 07:24:59 38° 106° (ESE) 07:29:13 437.305
CUTE 1.7 + AOD 2 17 Dec 07:22:54 07:27:10 64° 286° (WNW) 07:31:23 437.475
XW-2C 17 Dec 07:24:34 07:26:46 15° 295° (WNW) 07:28:57 145.795 - 145.815
Oscar 11 17 Dec 07:32:07 07:34:51 16° 91° (E) 07:37:35 .
CUTE-I 17 Dec 07:39:06 07:43:28 26° 296° (WNW) 07:47:49 437.470
NO-84 17 Dec 07:42:30 07:44:35 16° 342° (NNW) 07:46:47 435.350 FM
AO-85 17 Dec 07:46:58 07:48:21 11° 253° (WSW) 07:49:46 145.980
AO-73 17 Dec 07:48:30 07:52:35 37° 97° (E) 07:56:44 145.935
TIGRISAT 17 Dec 07:49:45 07:52:13 15° 63° (ENE) 07:54:41 435.000
HO-68 17 Dec 07:51:50 07:58:54 62° 291° (WNW) 08:05:54 435.675
UNISAT 6 17 Dec 07:53:19 07:56:14 18° 65° (ENE) 07:59:08 437.425
XW-2A 17 Dec 07:55:23 07:58:50 83° 106° (ESE) 08:02:15 145.665 - 145.685
STRAND 1 17 Dec 08:12:42 08:15:08 13° 271° (W) 08:17:35 437.568
FO-29 17 Dec 08:13:08 08:20:44 55° 261° (W) 08:28:25 435.910
SEEDS 17 Dec 08:30:43 08:33:53 21° 294° (WNW) 08:37:02 437.485
UWE-3 17 Dec 08:34:13 08:38:07 33° 290° (WNW) 08:42:07 435.000/436.395/437.385
AAUSAT CUBESAT 2 17 Dec 08:40:09 08:43:56 34° 290° (WNW) 08:47:40 437.432
CUBEBUG 2 17 Dec 08:41:33 08:44:23 17° 295° (WNW) 08:47:16 437.445
Max Valier Satellite 17 Dec 08:49:16 08:51:06 13° 91° (E) 08:52:56 145.860
ZACube-1 17 Dec 08:52:31 08:56:37 40° 289° (WNW) 09:00:47 437.345
O/OREOS (USA 219) 17 Dec 09:00:45 09:04:30 24° 304° (NW) 09:08:15 437.305
nSIGHT-1 17 Dec 09:06:36 09:07:05 10° 130° (SE) 09:07:34 .
